Change the Weather History Date:

Wednesday, November 6, 2013

  Actual Average (KTOL) Record (KTOL)
Temperature  
Mean Temperature 54 °F 45 °F  
Max Temperature 61 °F 55 °F 76 °F (1975)
Min Temperature 45 °F 36 °F 19 °F (1877)
Degree Days  
Heating Degree Days 12 20  
Month to date heating degree days 113  
Since 1 July heating degree days 639  
Cooling Degree Days 0 0  
Month to date cooling degree days 0  
Year to date cooling degree days 793  
Growing Degree Days 4 (Base 50)    
Moisture  
Dew Point 46 °F    
Average Humidity 76    
Maximum Humidity 88    
Minimum Humidity 56    
Precipitation  
Precipitation 0.13 in 0.10 in 0.44 in (1968)
Month to date precipitation 0.54  
Year to date precipitation 29.24  
Snow  
Snow 0.00 in 0.10 in - ()
Month to date snowfall 0.2  
Since 1 July snowfall 0.4  
Since 1 September snowfall 0.4  
Snow Depth -    
Sea Level Pressure  
Sea Level Pressure 29.98 in    
Wind  
Wind Speed 15 mph (SW)    
Max Wind Speed 25 mph    
Max Gust Speed 32 mph    
Visibility 10 miles    
Events Rain    
T = Trace of Precipitation, MM = Missing Value Source: NWS Daily Summary

Daily Weather History Graph

Daily Weather History Graph

Search for Another Location

Airport or City:

Trip Planner

Search our weather history database for the weather conditions in past years. The results will help you decide how hot, cold, wet, or windy it might be!

Date:

Astronomy

Nov. 06, 2013 Rise Set
Actual Time 7:12 AM EST 5:22 PM EST
Civil Twilight 6:42 AM EST 5:51 PM EST
Nautical Twilight 6:09 AM EST 6:24 PM EST
Astronomical Twilight 5:37 AM EST 6:57 PM EST
Moon 10:27 AM EST (11/6) 8:24 PM EST (11/6)
Length of Visible Light 11h 08m
Length of Day
10h 10m
Waxing Crescent, 13% of the Moon is Illuminated
Nov 6
Waxing Crescent
Nov 10
First Quarter
Nov 17
Full
Nov 25
Last Quarter
Dec 2
New

Hourly Weather History & Observations

Time (EST) Temp. Windchill Dew Point Humidity Pressure Visibility Wind Dir Wind Speed Gust Speed Precip Events Conditions
12:53 AM 52.0 °F - 39.9 °F 63% 30.18 in 10.0 mi South 11.5 mph - N/A   Clear
1:53 AM 51.1 °F - 39.0 °F 63% 30.15 in 10.0 mi South 11.5 mph - N/A   Partly Cloudy
2:53 AM 52.0 °F - 39.0 °F 61% 30.13 in 10.0 mi South 13.8 mph - N/A   Overcast
3:53 AM 52.0 °F - 39.0 °F 61% 30.11 in 10.0 mi South 11.5 mph - N/A   Overcast
4:53 AM 52.0 °F - 41.0 °F 66% 30.09 in 10.0 mi South 11.5 mph - 0.00 in   Overcast
5:53 AM 53.1 °F - 39.9 °F 61% 30.06 in 10.0 mi South 15.0 mph - N/A   Overcast
6:53 AM 53.1 °F - 42.1 °F 66% 30.03 in 10.0 mi South 13.8 mph - N/A   Overcast
7:53 AM 54.0 °F - 43.0 °F 66% 30.02 in 10.0 mi South 12.7 mph - N/A   Mostly Cloudy
8:53 AM 57.0 °F - 44.1 °F 62% 30.02 in 10.0 mi SSW 16.1 mph 21.9 mph N/A   Overcast
9:53 AM 59.0 °F - 45.0 °F 60% 30.00 in 10.0 mi SSW 16.1 mph 23.0 mph N/A   Mostly Cloudy
10:53 AM 61.0 °F - 45.0 °F 56% 29.98 in 10.0 mi SSW 20.7 mph 29.9 mph 0.00 in   Clear
11:53 AM 60.1 °F - 48.0 °F 64% 29.96 in 10.0 mi SSW 23.0 mph 32.2 mph 0.00 in Rain Light Rain
12:53 PM 57.0 °F - 48.9 °F 74% 29.93 in 10.0 mi SSW 21.9 mph 32.2 mph 0.01 in Rain Light Rain
1:40 PM 57.2 °F - 51.8 °F 82% 29.90 in 10.0 mi SSW 19.6 mph 27.6 mph 0.01 in Rain Light Rain
1:53 PM 57.0 °F - 51.1 °F 81% 29.91 in 10.0 mi SSW 20.7 mph 27.6 mph 0.01 in   Overcast
2:53 PM 57.0 °F - 52.0 °F 83% 29.88 in 9.0 mi SSW 16.1 mph 26.5 mph 0.02 in Rain Light Rain
3:53 PM 57.9 °F - 53.1 °F 84% 29.89 in 10.0 mi SW 18.4 mph 25.3 mph 0.00 in   Overcast
4:31 PM 57.2 °F - 53.6 °F 88% 29.90 in 4.0 mi SW 20.7 mph 27.6 mph 0.02 in Rain Light Rain
4:45 PM 57.2 °F - 53.6 °F 88% 29.90 in 5.0 mi SW 18.4 mph 27.6 mph 0.03 in Rain Light Rain
4:53 PM 57.0 °F - 53.1 °F 87% 29.90 in 10.0 mi SW 15.0 mph 25.3 mph 0.03 in Rain Light Rain
5:53 PM 57.0 °F - 52.0 °F 83% 29.90 in 10.0 mi SW 17.3 mph 23.0 mph 0.00 in   Overcast
6:53 PM 57.0 °F - 52.0 °F 83% 29.91 in 10.0 mi SW 16.1 mph - N/A   Overcast
7:53 PM 55.9 °F - 52.0 °F 87% 29.92 in 10.0 mi WSW 13.8 mph 21.9 mph 0.00 in Rain Light Rain
8:18 PM 55.4 °F - 51.8 °F 88% 29.91 in 10.0 mi WSW 15.0 mph - 0.00 in   Overcast
8:40 PM 50.0 °F - 46.4 °F 87% 29.94 in 10.0 mi WNW 17.3 mph - 0.01 in Rain Light Rain
8:53 PM 48.9 °F - 44.1 °F 83% 29.95 in 10.0 mi WNW 25.3 mph 32.2 mph 0.01 in Rain Light Rain
9:35 PM 46.4 °F 40.1 °F 42.8 °F 87% 29.98 in 10.0 mi West 15.0 mph - 0.04 in Rain Light Rain
9:53 PM 46.9 °F - 43.0 °F 86% 29.96 in 10.0 mi WNW 13.8 mph - 0.05 in Rain Light Rain
10:21 PM 46.4 °F 40.7 °F 42.8 °F 87% 29.99 in 10.0 mi West 12.7 mph 20.7 mph 0.00 in   Overcast
10:53 PM 46.0 °F 40.2 °F 41.0 °F 83% 29.99 in 10.0 mi WNW 12.7 mph - 0.00 in Rain Light Rain
11:53 PM 45.0 °F 39.3 °F 41.0 °F 86% 30.00 in 10.0 mi WNW 11.5 mph - 0.00 in   Overcast